Location: Street
(51.1247°N, 2.7429°W)
Time: 17:55:13
(UTC+00:00)

A-11 Canister half - All Passes

Search period start: 04 December 2020 00:00
Search period end: 14 December 2020 00:00
Orbit: 1525 x 1684 km, 47.3° (Epoch: 03 December)

Date Brightness Start Highest point End Pass type
(mag) Time Alt. Az. Time Alt. Az. Time Alt. Az.
04 Dec - 03:02:42 10° S 03:09:54 23° SE 03:17:03 10° E visible
04 Dec - 05:03:38 10° SW 05:13:19 52° SSE 05:22:52 10° E visible
04 Dec - 07:07:45 10° WSW 07:17:50 72° S 07:27:41 10° E visible
04 Dec - 09:12:41 10° W 09:22:30 60° SSW 09:32:01 10° SE daylight
04 Dec - 11:18:05 10° W 11:26:13 30° SW 11:34:08 10° SSE daylight
05 Dec - 02:41:22 10° S 02:48:19 21° SE 02:55:15 10° E visible
05 Dec - 04:42:02 10° SW 04:51:40 50° SSE 05:01:12 10° E visible
05 Dec - 06:46:05 10° WSW 06:56:10 72° S 07:06:02 10° E visible
05 Dec - 08:51:00 10° W 09:00:52 61° SSW 09:10:25 10° ESE daylight
05 Dec - 10:56:21 10° W 11:04:38 31° SW 11:12:42 10° SSE daylight
06 Dec - 02:20:02 10° S 02:26:44 20° SE 02:33:26 10° E visible
06 Dec - 04:20:27 10° SW 04:30:02 49° SSE 04:39:32 10° E visible
06 Dec - 06:24:24 10° WSW 06:34:30 71° S 06:44:23 10° E visible
06 Dec - 08:29:19 10° W 08:39:13 63° SSW 08:48:49 10° ESE daylight
06 Dec - 10:34:37 10° W 10:43:03 33° SW 10:51:15 10° SSE daylight
07 Dec - 01:58:44 10° SSE 02:05:10 19° SE 02:11:36 10° E visible
07 Dec - 03:58:52 10° SW 04:08:24 48° SSE 04:17:52 10° E visible
07 Dec - 06:02:43 10° WSW 06:12:50 71° S 06:22:44 10° E visible
07 Dec - 08:07:37 10° W 08:17:33 64° SSW 08:27:13 10° ESE daylight
07 Dec - 10:12:53 10° W 10:21:28 34° SW 10:29:49 10° SSE daylight
08 Dec - 01:37:29 10° SSE 01:43:37 18° SE 01:49:44 10° E visible
08 Dec - 03:37:18 10° SW 03:46:46 46° SSE 03:56:11 10° E visible
08 Dec - 05:41:04 10° WSW 05:51:09 71° S 06:01:05 10° E visible
08 Dec - 07:45:56 10° W 07:55:54 65° SSW 08:05:36 10° ESE daylight
08 Dec - 09:51:09 10° W 09:59:52 35° SW 10:08:21 10° SSE daylight
09 Dec - 01:16:15 10° SSE 01:22:02 17° SE 01:27:51 10° E visible
09 Dec - 03:15:44 10° SW 03:25:08 45° SSE 03:34:30 10° E visible
09 Dec - 05:19:24 10° WSW 05:29:29 70° S 05:39:25 10° E visible
09 Dec - 07:24:15 10° W 07:34:15 66° SSW 07:43:59 10° ESE visible
09 Dec - 09:29:26 10° W 09:38:16 37° SW 09:46:53 10° SSE daylight
09 Dec - 11:38:35 10° WSW 11:40:52 11° WSW 11:43:08 10° SW daylight
10 Dec - 00:55:04 10° SSE 01:00:29 16° SE 01:05:55 10° E visible
10 Dec - 02:54:11 10° SSW 03:03:30 44° SSE 03:12:48 10° E visible
10 Dec - 04:57:43 10° WSW 05:07:49 69° S 05:17:46 10° E visible
10 Dec - 07:02:33 10° W 07:12:35 67° SSW 07:22:22 10° ESE visible
10 Dec - 09:07:42 10° W 09:16:40 38° SW 09:25:23 10° SSE daylight
10 Dec - 11:16:07 10° WSW 11:19:20 12° WSW 11:22:32 10° SW daylight
11 Dec - 00:33:55 10° SSE 00:38:56 15° SE 00:43:57 10° E visible
11 Dec - 02:32:38 10° SSW 02:41:52 42° SE 02:51:07 10° E visible
11 Dec - 04:36:04 10° WSW 04:46:08 69° SSE 04:56:07 10° E visible
11 Dec - 06:40:52 10° W 06:50:55 68° SSW 07:00:45 10° ESE visible
11 Dec - 08:46:00 10° W 08:55:03 40° SW 09:03:53 10° SSE daylight
11 Dec - 10:53:53 10° W 10:57:48 13° WSW 11:01:41 10° SSW daylight
12 Dec - 00:12:51 10° SSE 00:17:23 14° ESE 00:21:55 10° E visible
12 Dec - 02:11:06 10° SSW 02:20:15 41° SE 02:29:26 10° E visible
12 Dec - 04:14:25 10° WSW 04:24:28 68° SSE 04:34:26 10° E visible
12 Dec - 06:19:11 10° W 06:29:15 68° SSW 06:39:06 10° ESE visible
12 Dec - 08:24:17 10° W 08:33:27 41° SW 08:42:23 10° SSE daylight
12 Dec - 10:31:46 10° W 10:36:16 14° WSW 10:40:43 10° SSW daylight
12 Dec - 23:51:51 10° SSE 23:55:50 13° ESE 23:59:49 10° E night (unlit)
13 Dec - 01:49:34 10° SSW 01:58:38 39° SE 02:07:43 10° E visible
13 Dec - 03:52:45 10° WSW 04:02:48 67° SSE 04:12:46 10° E visible
13 Dec - 05:57:30 10° W 06:07:34 69° S 06:17:28 10° ESE visible
13 Dec - 08:02:34 10° W 08:11:50 43° SW 08:20:52 10° SSE daylight
13 Dec - 10:09:44 10° W 10:14:43 15° SW 10:19:39 10° SSW daylight
13 Dec - 23:31:00 10° SE 23:34:17 12° ESE 23:37:35 10° ESE night (unlit)
